Regional Weather Roundup
Issued by NWS

Home | Current Version | Previous Version | Graphics & Text | Print | Product List | Glossary Off
Versions: 1 2 3 4 5 6 7 8 9 10 11 12 13 14 15 16 17 18 19 20 21 22 23 24 25 26 27 28 29 30 31 32 33 34 35 36 37 38 39 40 41 42 43 44 45 46 47 48 49 50

759
ASUS43 KMPX 231301
RWRMN
WEATHER ROUNDUP FOR MINNESOTA
NATIONAL WEATHER SERVICE TWIN CITIES/CHANHASSEN MN
800 AM CDT SAT JUL 23 2016


NOTE: "FAIR" INDICATES FEW OR NO CLOUDS BELOW 12,000 FEET WITH NO
SIGNIFICANT WEATHER AND/OR OBSTRUCTIONS TO VISIBILITY. N/A MEANS
CURRENT SKY AND/OR WEATHER CONDITIONS ARE NOT AVAILABLE.

MNZ060>063-068>070-231400-
   Twin Cities Metro

CITY           SKY/WX    TMP DP  RH WIND       PRES   REMARKS
TWIN CITIES    CLOUDY    79  72  79 E10       29.90F
ST PAUL        CLOUDY    78  71  79 CALM      29.91F
CRYSTAL        PTSUNNY   79  71  76 E9        29.89F
LAKEVILLE      PTSUNNY   73  73 100 E6        29.91F
EDEN PRAIRIE   PTSUNNY   79  73  82 E9        29.89F
LAKEVILLE      PTSUNNY   73  73 100 E6        29.91F
SOUTH ST PAUL  CLOUDY    77  71  81 E6        29.91F
LAKE ELMO      PTSUNNY   75  68  78 E5        29.94F
$$
MNZ001>005-007-008-013>017-022>024-027-028-231400-
   Northwest Minnesota

CITY           SKY/WX    TMP DP  RH WIND       PRES   REMARKS
BEMIDJI        CLOUDY    70  61  73 SE7       29.90F
HALLOCK        LGT RAIN  66  63  88 CALM      29.86F
ROSEAU         CLOUDY    66  61  82 E7        29.89S
WARROAD        CLOUDY    68  63  83 E13       29.90F
THIEF RVR FALL CLOUDY    70  63  78 E10       29.88F
CROOKSTON      CLOUDY    72  64  78 SE7       29.84F
FOSSTON        CLOUDY    70  61  73 SE10      29.89S
DETROIT LAKES  CLOUDY    72  59  64 SE7       29.90S
MOORHEAD       PTSUNNY   73  63  68 SE7       29.83F
PARK RAPIDS    PTSUNNY   72  59  63 SE12      29.90F
MAHNOMEN       FAIR      72  60  66 SE8       29.87F
$$
MNZ006-009>011-018-025>026-231400-
   North Central Minnesota

CITY           SKY/WX    TMP DP  RH WIND       PRES   REMARKS
BAUDETTE       CLOUDY    66  61  84 E13       29.91F
FLAG ISLAND    CLOUDY    70  59  68 E8        29.91F
INTL FALLS     CLOUDY    64  62  93 E6        29.96F
WASKISH        CLOUDY    64  61  88 E6        29.92
BIG FORK       CLOUDY    66  61  82 E3        29.96F
LONGVILLE      CLOUDY    64  64 100 CALM      29.92F
GRAND RAPIDS   MOSUNNY   69  61  75 SE5       29.98F
CRANE LAKE     CLOUDY    59  59 100 CALM      30.00S
ORR            CLOUDY    63  61  94 CALM      29.97S
COOK           CLOUDY    63  61  94 CALM      30.00S
WALKER         FAIR      71  60  67 SE9G17    29.91F
$$
MNZ012-019>021-037-231400-
   Northeast Minnesota

CITY           SKY/WX    TMP DP  RH WIND       PRES   REMARKS
DULUTH         SUNNY     73  62  68 E7        29.99F
ELY            CLOUDY    64  59  82 CALM      30.00F
HIBBING        SUNNY     64  61  90 E3        29.99F
EVELETH        PTSUNNY   65  63  92 NE3       30.01R
DULUTH HARBOR  SUNNY     70  64  83 NE5       29.98S
TWO HARBORS    CLOUDY    73  64  73 NE3       29.98F
SILVER BAY     MOSUNNY   70  64  83 CALM      29.99S
GRAND MARAIS     N/A     74  58  57 NE3       29.98F
G MARAIS ARPRT MOSUNNY   68  55  64 E3        30.04F
$$
MNZ029>031-032-039>041-046>048-054>057-064-231400-
   West Central Minnesota

CITY           SKY/WX    TMP DP  RH WIND       PRES   REMARKS
FERGUS FALLS   CLOUDY    77  64  65 SE10      29.85F
WHEATON        CLOUDY    75  72  88 SE10      29.84S
MORRIS         CLOUDY    73  68  83 E8        29.84S
ALEXANDRIA     CLOUDY    74  65  73 E12       29.91S
ELBOW LAKE     FAIR      74  66  74 SE12      29.86R
WADENA         CLOUDY    70  63  78 SE12      29.88F
GLENWOOD       CLOUDY    73  66  78 E12       29.90S
APPLETON       CLOUDY    75  72  88 SE9       29.85R
BENSON         CLOUDY    73  68  83 SE7       29.85F
ORTONVILLE     CLOUDY    73  70  88 SE9       29.84S THUNDER
MADISON        TSTM      72  70  94 SW24G44   29.92R
WILLMAR        FAIR      75  73  94 E6        29.88S
$$
MNZ033>034-036-042>043-049>051-058-059-231400-
   Central Minnesota

CITY           SKY/WX    TMP DP  RH WIND       PRES   REMARKS
ST CLOUD       CLOUDY    75  68  78 E7        29.90F
SAUK CENTRE    FAIR      73  66  76 E6        29.91S
PAYNESVILLE    CLOUDY    75  69  82 E7        29.89F
AITKIN         MOSUNNY   72  63  73 E3        29.95S
PINE RIVER     CLOUDY    70  63  78 SE6       29.97F
BRAINERD       MOSUNNY   73  65  75 VRB5      29.94F
STAPLES        CLOUDY    72  61  68 SE7       29.90F
LONG PRAIRIE   FAIR      72  66  83 NE7       29.92F
LITTLE FALLS   CLOUDY    72  61  68 E7        29.92F
LITCHFIELD     CLOUDY    75  73  94 E6        29.89F
BUFFALO        CLOUDY    76  69  79 E5        29.91S
MAPLE LAKE     PTSUNNY   76  71  84 E6        29.91S
HUTCHINSON     CLOUDY    76  74  93 E8        29.89S
$$
MNZ037-044-045-052-053-231400-
   East Central Minnesota

CITY           SKY/WX    TMP DP  RH WIND       PRES   REMARKS
PRINCETON      MOSUNNY   77  66  69 E6        29.93S
MORA           CLOUDY    72  63  73 E7        29.96F
CAMBRIDGE      CLOUDY    79  64  61 E7        29.92S
RUSH CITY      CLOUDY    73  68  86 CALM      29.95S
MOOSE LAKE     SUNNY     70  61  73 CALM      29.95F
HINCKLEY       FAIR      73  64  73 E8        29.95F
CLOQUET        SUNNY     72  59  64 E5        29.98S
MCGREGOR       SUNNY     72  63  73 E5        29.98R
$$
MNZ071>073-080-081-089-090-097-098-231400-
   Southwest Minnesota

CITY           SKY/WX    TMP DP  RH WIND       PRES   REMARKS
MONTEVIDEO     CLOUDY    73  73 100 SE8       29.86S
GRANITE FALLS  CLOUDY    76  74  94 NE6       29.87S
CANBY          TSTM      70  68  94 SW6       29.91R
MARSHALL       FOG       71  68  90 W17G28    29.86S VSB 3/4
REDWOOD FALLS  CLOUDY    77  74  90 E7        29.84F
OLIVIA         CLOUDY    73  72  94 E10       29.85F
PIPESTONE      CLOUDY    73  72  94 CALM      29.90S
WINDOM         CLOUDY    77  73  88 SE8G16    29.86F
WORTHINGTON    CLOUDY    77  76  96 S6        29.88F
JACKSON        CLOUDY    79  73  83 SE8       29.89F FOG
TRACY          CLOUDY    78  78  99 SE6       29.87R FOG
SLAYTON        LGT RAIN  76  76  98 SE5       29.88F
$$
MNZ065>067-074>077-082>085-091>093-231400-
   South Central Minnesota

CITY           SKY/WX    TMP DP  RH WIND       PRES   REMARKS
MANKATO        PTSUNNY   79  73  83 E12       29.87F
NEW ULM        CLOUDY    79  77  94 E13       29.85F
ST JAMES       CLOUDY    73  72  94 SE7       29.88S THUNDER
FAIRMONT       CLOUDY    77  73  88 SE12      29.87F
GLENCOE        CLOUDY    78  75  92 E8        29.88F
FARIBAULT      PTSUNNY   79  75  89 E7        29.91S
OWATONNA       PTSUNNY   81  75  83 E6        29.91F
WASECA         CLOUDY    77  73  88 E12       29.90F
ALBERT LEA     CLOUDY    79  75  89 SE7       29.91F
$$
MNZ078>079-086>088-094>096-231400-
   Southeast Minnesota

CITY           SKY/WX    TMP DP  RH WIND       PRES   REMARKS
ROCHESTER      CLOUDY    78  77  96 SE7       29.94F FOG
RED WING       PTSUNNY   77  70  78 E6        29.91F
STANTON        CLOUDY    77  75  94 E6        29.91F
DODGE CENTER   CLOUDY    79  75  89 E7        29.93F FOG
WINONA         CLOUDY    73  72  94 SE7       29.95S
AUSTIN         CLOUDY    79  75  89 SE6       29.91F
PRESTON        CLOUDY    76  74  94 SE8       29.97R FOG
$$
ABBREVIATIONS USED IN REMARKS
   TC - TEMPERATURES IN CELSIUS
  WCI - WIND CHILL INDEX
   HX - HEAT INDEX
  VSB - VISIBILITY
$$




USA.gov is the U.S. government's official web portal to all federal, state and local government web resources and services.